This is the latest recevied weather packets stored in our database for station/object DM1HF-13. If no packets are shown the sender has not sent any weather packets the latest 10 day(s).
| Time | Temp. | Humidity | Pressure | Rain* | Wind** | Luminosity | Snow |
|---|---|---|---|---|---|---|---|
| 1777992617 | 19.44° C | 62% | 1009.2 hPa | 0 mm | - | 111 W/m² | - |
| 1777992317 | 20° C | 64% | 1009.2 hPa | 0 mm | - | 115 W/m² | - |
| 1777992016 | 20° C | 63% | 1009.2 hPa | 0 mm | - | 119 W/m² | - |
| 1777991716 | 20.56° C | 62% | 1009.3 hPa | 0 mm | - | 123 W/m² | - |
| 1777991416 | 20° C | 63% | 1009.3 hPa | 0 mm | - | 143 W/m² | - |
| 1777991116 | 20° C | 62% | 1009.4 hPa | 0 mm | - | 179 W/m² | - |
| 1777990817 | 20° C | 63% | 1009.4 hPa | 0 mm | - | 356 W/m² | - |
| 1777990517 | 20.56° C | 62% | 1009.5 hPa | 0 mm | - | 262 W/m² | - |
| 1777989916 | 20° C | 65% | 1009.6 hPa | 0 mm | - | 249 W/m² | - |
| 1777989616 | 19.44° C | 64% | 1009.6 hPa | 0 mm | - | 232 W/m² | - |
| 1777989316 | 20° C | 64% | 1009.8 hPa | 0 mm | - | 220 W/m² | - |
| 1777989016 | 20° C | 65% | 1009.7 hPa | 0 mm | - | 198 W/m² | - |
| 1777988716 | 19.44° C | 64% | 1009.8 hPa | 0 mm | - | 190 W/m² | - |
| 1777988416 | 20° C | 62% | 1009.9 hPa | 0 mm | - | 212 W/m² | - |
| 1777988116 | 19.44° C | 65% | 1009.8 hPa | 0 mm | - | 201 W/m² | - |
| 1777987816 | 19.44° C | 63% | 1009.8 hPa | 0 mm | - | 179 W/m² | - |
| 1777987516 | 19.44° C | 63% | 1009.9 hPa | 0 mm | - | 173 W/m² | - |
| 1777987216 | 19.44° C | 65% | 1009.9 hPa | 0 mm | - | 189 W/m² | - |
| 1777986916 | 20° C | 64% | 1009.9 hPa | 0 mm | - | 213 W/m² | - |
| 1777986616 | 20° C | 66% | 1010.1 hPa | 0 mm | - | 217 W/m² | - |
| 1777986316 | 20° C | 65% | 1010 hPa | 0 mm | - | 203 W/m² | - |
| 1777986016 | 19.44° C | 63% | 1010 hPa | 0 mm | - | 180 W/m² | - |
| 1777985716 | 20° C | 65% | 1010.1 hPa | 0 mm | - | 169 W/m² | - |
| 1777985417 | 20° C | 64% | 1010.2 hPa | 0 mm | - | 168 W/m² | - |
| 1777985116 | 20° C | 63% | 1010.2 hPa | 0 mm | - | 220 W/m² | - |
* Rain latest hour (hover to see other rain measurements)
** Current wind speed in m/s (hover to see current wind gust speed)